Location: Helsinki
(60.1699°N, 24.9384°E)
Time: 20:46:04
(UTC+02:00)

Transit 2A Rocket - Pass Details

Date: 28 September 2023
Orbit: 593 x 903 km, 66.7° (Epoch: 28 November)

Event Time Altitude Azimuth Distance (km) Brightness Sun altitude
Rises 23:34:58 0° 309° (NW) 2,995 9.1 -29.1°
Reaches altitude 10° 23:37:32 10° 299° (WNW) 2,037 7.9 -29.3°
Enters shadow 23:39:55 24° 274° (W) 1,315 6.4 -29.4°
Maximum altitude 23:41:29 30° 239° (WSW) 1,117 - -29.5°
Drops below altitude 10° 23:45:15 10° 178° (S) 1,940 - -29.7°
Sets 23:47:39 0° 167° (SSE) 2,827 - -29.8°
